Weather History for KSLC - November, 2013

Change the Weather History Date:

Thursday, November 21, 2013

  Actual Average Record
Temperature  
Mean Temperature 40 °F 37 °F  
Max Temperature 43 °F 46 °F 65 °F (1996)
Min Temperature 36 °F 28 °F 5 °F (1931)
Degree Days  
Heating Degree Days 25 28  
Month to date heating degree days 382 482  
Since 1 July heating degree days 820 950  
Cooling Degree Days 0 0  
Month to date cooling degree days 0 0  
Year to date cooling degree days 1768 1160  
Moisture  
Dew Point 30 °F    
Average Humidity 62    
Maximum Humidity 89    
Minimum Humidity 35    
Precipitation  
Precipitation 0.09 in 0.04 in 0.50 in (1955)
Month to date precipitation 0.62 1.03  
Year to date precipitation 9.97 14.27  
Snow  
Snow T in 0.30 in 5.50 in (1999)
Month to date snowfall 3.5 4.4  
Since 1 July snowfall 3.5 5.8  
Snow Depth 0.00 in    
Sea Level Pressure  
Sea Level Pressure 30.07 in    
Wind  
Wind Speed 10 mph (West)    
Max Wind Speed 24 mph    
Max Gust Speed 36 mph    
Visibility 9 miles    
Events Rain , Snow    
T = Trace of Precipitation, MM = Missing Value Source: NWS Daily Summary

Daily Weather History Graph

Daily Weather History Graph

Search for Another Location

Airport or City:

Trip Planner

Search our weather history database for the weather conditions in past years. The results will help you decide how hot, cold, wet, or windy it might be!

Date:

Astronomy

Nov. 21, 2013 Rise Set
Actual Time 7:22 AM MST 5:05 PM MST
Civil Twilight 6:52 AM MST 5:35 PM MST
Nautical Twilight 6:18 AM MST 6:08 PM MST
Astronomical Twilight 5:46 AM MST 6:41 PM MST
Moon 8:45 PM MST (11/21) 10:30 AM MST (11/21)
Length of Visible Light 10h 42m
Length of Day
9h 43m
Waning Gibbous, 85% of the Moon is Illuminated
Nov 21
Waning Gibbous
Nov 25
Last Quarter
Dec 2
New
Dec 9
First Quarter
Dec 17
Full

Hourly Weather History & Observations

Time (MST) Temp. Windchill Dew Point Humidity Pressure Visibility Wind Dir Wind Speed Gust Speed Precip Events Conditions
12:53 AM 42.1 °F 35.7 °F 37.0 °F 82% 29.86 in 10.0 mi NNW 11.5 mph - 0.00 in   Overcast
1:36 AM 41.0 °F 34.3 °F 35.6 °F 81% 29.90 in 10.0 mi NNW 11.5 mph - N/A   Overcast
1:53 AM 41.0 °F 35.2 °F 36.0 °F 82% 29.86 in 10.0 mi North 9.2 mph - N/A   Mostly Cloudy
2:53 AM 39.9 °F 33.4 °F 34.0 °F 79% 29.88 in 10.0 mi NNW 10.4 mph - 0.00 in Rain Light Rain
3:53 AM 39.9 °F 33.9 °F 34.0 °F 79% 29.88 in 10.0 mi NNW 9.2 mph - 0.01 in Rain Light Rain
4:53 AM 39.9 °F 36.7 °F 34.0 °F 79% 29.91 in 10.0 mi NW 4.6 mph - 0.01 in   Overcast
5:09 AM 39.2 °F 34.2 °F 33.8 °F 81% 29.94 in 10.0 mi NNW 6.9 mph - N/A   Overcast
5:53 AM 39.0 °F 34.0 °F 33.1 °F 79% 29.93 in 10.0 mi NW 6.9 mph - 0.00 in   Overcast
6:53 AM 37.9 °F 32.7 °F 32.0 °F 79% 29.95 in 10.0 mi NW 6.9 mph - 0.00 in Rain Light Rain
7:08 AM 37.4 °F 32.8 °F 32.0 °F 81% 29.98 in 10.0 mi NW 5.8 mph - 0.00 in Rain Light Rain
7:53 AM 37.9 °F 32.7 °F 32.0 °F 79% 29.97 in 10.0 mi WNW 6.9 mph - 0.01 in Rain Light Rain
8:17 AM 37.4 °F 32.1 °F 33.8 °F 87% 30.00 in 8.0 mi WNW 6.9 mph - 0.02 in Rain Light Rain
8:26 AM 37.4 °F 33.8 °F 33.8 °F 87% 30.01 in 7.0 mi WNW 4.6 mph - 0.02 in Rain Light Rain
8:53 AM 37.0 °F 29.8 °F 33.1 °F 86% 30.01 in 8.0 mi NNW 10.4 mph - 0.03 in Rain Light Rain
9:53 AM 37.9 °F 32.1 °F 33.1 °F 83% 30.03 in 10.0 mi NNW 8.1 mph - 0.00 in Rain Light Rain
10:34 AM 39.2 °F - 33.8 °F 81% 30.06 in 10.0 mi Calm Calm - 0.01 in Rain Light Rain
10:53 AM 39.0 °F - 33.1 °F 79% 30.05 in 10.0 mi Calm Calm - 0.01 in Rain Light Rain
11:30 AM 39.2 °F 34.2 °F 33.8 °F 81% 30.07 in 10.0 mi SW 6.9 mph - 0.00 in Rain Light Rain
11:37 AM 39.2 °F 35.0 °F 33.8 °F 81% 30.07 in 10.0 mi SSW 5.8 mph - 0.00 in Rain Light Rain
11:49 AM 39.2 °F 34.2 °F 32.0 °F 75% 30.07 in 10.0 mi SSW 6.9 mph - 0.00 in Rain Light Rain
11:53 AM 39.0 °F 34.8 °F 32.0 °F 76% 30.06 in 10.0 mi SSW 5.8 mph - 0.00 in Rain Light Rain
12:35 PM 37.4 °F 32.1 °F 32.0 °F 81% 30.07 in 10.0 mi SSW 6.9 mph - 0.00 in Rain Light Rain
12:53 PM 39.0 °F 34.0 °F 33.1 °F 79% 30.06 in 10.0 mi South 6.9 mph - 0.00 in   Overcast
1:53 PM 39.0 °F 34.0 °F 33.1 °F 79% 30.08 in 10.0 mi WSW 6.9 mph - N/A   Overcast
2:53 PM 39.9 °F 32.9 °F 28.9 °F 65% 30.11 in 10.0 mi NNE 11.5 mph - 0.00 in Rain Light Rain
3:19 PM 39.2 °F 35.0 °F 28.4 °F 65% 30.14 in 7.0 mi WSW 5.8 mph - 0.00 in   Unknown
3:41 PM 37.4 °F 33.8 °F 30.2 °F 75% 30.16 in 2.0 mi West 4.6 mph - 0.01 in Snow Light Snow
3:53 PM 37.0 °F 34.5 °F 30.9 °F 79% 30.16 in 2.0 mi WNW 3.5 mph - 0.01 in Snow Light Snow
4:16 PM 37.4 °F 31.4 °F 30.2 °F 75% 30.17 in 2.0 mi WSW 8.1 mph - 0.00 in Snow Light Snow
4:53 PM 36.0 °F 30.3 °F 30.9 °F 82% 30.19 in 3.0 mi West 6.9 mph - 0.01 in Snow Light Snow
5:53 PM 36.0 °F 28.5 °F 30.9 °F 82% 30.22 in 8.0 mi WSW 10.4 mph - 0.00 in   Overcast
6:53 PM 37.9 °F 32.7 °F 28.9 °F 70% 30.23 in 10.0 mi West 6.9 mph - N/A   Mostly Cloudy
7:53 PM 37.9 °F 30.5 °F 21.9 °F 53% 30.24 in 10.0 mi ESE 11.5 mph - N/A   Mostly Cloudy
8:53 PM 39.0 °F 29.6 °F 19.0 °F 45% 30.26 in 10.0 mi SSE 18.4 mph - N/A   Mostly Cloudy
9:53 PM 37.9 °F 29.6 °F 16.0 °F 41% 30.25 in 10.0 mi SE 13.8 mph 18.4 mph N/A   Scattered Clouds
10:09 PM 37.4 °F 26.9 °F 15.8 °F 41% 30.25 in 10.0 mi SE 20.7 mph 28.8 mph N/A   Mostly Cloudy
10:53 PM 37.9 °F 27.9 °F 12.9 °F 36% 30.27 in 10.0 mi SE 19.6 mph 29.9 mph N/A   Scattered Clouds
11:53 PM 37.9 °F 27.3 °F 5.0 °F 25% 30.30 in 10.0 mi SE 21.9 mph 28.8 mph N/A   Scattered Clouds